Location: Alsip
(41.6689°N, 87.7387°W)
Time: 14:06:38
(UTC+00:00)

Cosmos 371 Rocket - Pass Details

Date: 14 July 2020
Orbit: 684 x 699 km, 74.0° (Epoch: 04 August)

Event Time Altitude Azimuth Distance (km) Brightness Sun altitude
Rises 03:20:33 0° 348° (NNW) 3,077 7.8 -17.1°
Reaches altitude 10° 03:23:06 10° 359° (N) 2,153 6.6 -17.4°
Maximum altitude 03:27:27 32° 63° (ENE) 1,170 4.4 -17.9°
Enters shadow 03:29:11 25° 101° (E) 1,372 4.4 -18.1°
